Location: Centerville
(32.8776°N, 96.6203°W)
Time: 13:34:56
(UTC+00:00)

Cosmos 1975 Rocket - Pass Details

Date: 17 June 2021
Orbit: 604 x 633 km, 82.5° (Epoch: 30 July)

Event Time Altitude Azimuth Distance (km) Brightness Sun altitude
Exits shadow 03:46:42 42° 207° (SSW) 871 3.6 -21.9°
Maximum altitude 03:48:04 70° 277° (W) 651 3.2 -22.1°
Drops below altitude 10° 03:52:25 10° 1° (N) 1,978 6.3 -22.7°
Sets 03:54:41 0° 4° (N) 2,892 7.2 -23.0°
